This demonstration page uses our WeatherBlox Daily Observations layout. Learn more.

Left ArrowRight Arrow

40.92945, -100.16068

Hourly Observations for February 20, 2018

Temp ( °F °C ) Dew Point ( °F °C ) Humidity (%) Winds ( mph kmh ) Pressure ( in mb ) Visibility ( mi km ) Precip ( " mm )
12:15 am 00:15 Cloudy with Light Snow 12 -11.2 7 -14 80 80 N 15 24 30.12 1020 5 8 N/A
12:35 am 00:35 Cloudy with Light Snow 12 -11.1 7 -13.8 81 81 NNW 15 24 30.12 1020 4 6 N/A
12:55 am 00:55 Cloudy with Light Snow 12 -11 7 -13.9 79 79 NNW 12 19 30.12 1020 10 16 N/A
1:15 am 01:15 Cloudy 12 -11 6 -14.3 77 77 NNW 13 20 30.09 1019 10 16 N/A
1:35 am 01:35 Mostly Cloudy 12 -11 6 -14.2 78 78 NNW 15 24 30.12 1020 10 16 N/A
1:55 am 01:55 Cloudy 12 -11 6 -14.2 78 78 NNW 18 30 30.12 1020 10 16 N/A
2:15 am 02:15 Cloudy with Light Snow 12 -11.2 6 -14.3 78 78 NNW 16 26 30.12 1020 7 11 N/A
2:35 am 02:35 Cloudy 11 -11.5 5 -15 76 76 NNW 18 30 30.12 1020 10 16 N/A
2:55 am 02:55 Cloudy 11 -11.5 5 -15.1 75 75 NNW 16 26 30.18 1022 10 16 N/A
3:15 am 03:15 Cloudy 11 -11.6 4 -15.5 73 73 NNW 18 30 30.18 1022 10 16 N/A
3:35 am 03:35 Cloudy 11 -11.8 3 -16 71 71 NNW 16 26 30.18 1022 10 16 N/A
3:55 am 03:55 Cloudy 11 -11.7 4 -15.5 74 74 NW 17 28 30.18 1022 10 16 N/A
4:15 am 04:15 Cloudy 10 -12 4 -15.8 74 74 NNW 17 28 30.21 1023 10 16 N/A
4:35 am 04:35 Cloudy 10 -12.2 2 -16.5 71 71 NNW 22 35 30.18 1022 10 16 N/A
4:55 am 04:55 Mostly Cloudy 10 -12.3 3 -16.1 74 74 NNW 14 22 30.21 1023 10 16 N/A
5:15 am 05:15 Mostly Cloudy 10 -12.5 3 -16.2 74 74 NNW 17 28 30.21 1023 10 16 N/A
5:35 am 05:35 Mostly Cloudy 9 -13 2 -16.5 75 75 NW 20 31 30.24 1024 10 16 N/A
5:55 am 05:55 Mostly Cloudy 9 -13 2 -16.7 74 74 NNW 21 33 30.24 1024 10 16 N/A
6:15 am 06:15 Mostly Cloudy 9 -13 2 -16.9 73 73 NNW 22 35 30.24 1024 10 16 N/A
6:35 am 06:35 Cloudy 8 -13.1 1 -17.3 71 71 NNW 22 35 30.24 1024 10 16 N/A
6:55 am 06:55 Cloudy 8 -13.2 N/A 69 69 NNW 18 30 30.30 1026 10 16 N/A
7:15 am 07:15 Cloudy 8 -13.2 1 -17.5 70 70 NNW 18 30 30.30 1026 10 16 N/A
7:35 am 07:35 Partly Cloudy 8 -13.6 -1 -18.2 69 69 NNW 17 28 30.30 1026 10 16 N/A
7:55 am 07:55 Partly Cloudy 8 -13.5 -1 -18.1 69 69 NNW 15 24 30.33 1027 10 16 N/A
8:15 am 08:15 Sunny 8 -13.6 -1 -18.3 68 68 NNW 15 24 30.33 1027 10 16 N/A
8:35 am 08:35 Sunny 8 -13.5 -1 -18.2 68 68 NNW 16 26 30.33 1027 10 16 N/A
8:55 am 08:55 Sunny 8 -13.1 N/A 68 68 NNW 18 30 30.36 1028 10 16 N/A
9:15 am 09:15 Sunny 9 -13 N/A 67 67 NW 18 30 30.36 1028 10 16 N/A
9:35 am 09:35 Sunny 9 -12.8 N/A 67 67 NNW 21 33 30.36 1028 10 16 N/A
9:55 am 09:55 Sunny 9 -13 N/A 67 67 NW 17 28 30.39 1029 10 16 N/A
10:15 am 10:15 Sunny 10 -12.3 1 -17.2 67 67 NW 16 26 30.36 1028 10 16 N/A
10:35 am 10:35 Sunny 11 -11.9 1 -17 66 66 NNW 16 26 30.36 1028 10 16 N/A
10:55 am 10:55 Sunny 11 -11.5 2 -16.5 67 67 NW 18 30 30.36 1028 10 16 N/A
11:15 am 11:15 Sunny 12 -11 3 -15.9 67 67 NNW 20 31 30.33 1027 10 16 N/A
11:35 am 11:35 Sunny 12 -10.9 3 -16 66 66 NNW 18 30 30.33 1027 10 16 N/A
11:55 am 11:55 Sunny 14 -10.2 5 -15.2 67 67 NNW 18 30 30.33 1027 10 16 N/A
12:15 pm 12:15 Sunny 14 -9.9 5 -15 67 67 NW 21 33 30.30 1026 10 16 N/A
12:35 pm 12:35 Sunny 15 -9.7 5 -15.2 65 65 NW 22 35 30.30 1026 10 16 N/A
12:55 pm 12:55 Sunny 15 -9.5 5 -15.2 64 64 NNW 21 33 30.30 1026 10 16 N/A
1:15 pm 13:15 Sunny 15 -9.3 4 -15.3 62 62 NW 16 26 30.30 1026 10 16 N/A
1:35 pm 13:35 Sunny 16 -9 5 -15 62 62 NNW 17 28 30.33 1027 10 16 N/A
1:55 pm 13:55 Sunny 16 -9.1 4 -15.5 60 60 N 17 28 30.33 1027 10 16 N/A
2:15 pm 14:15 Sunny 16 -8.9 5 -15.1 61 61 NNW 13 20 30.33 1027 10 16 N/A
2:35 pm 14:35 Sunny 16 -8.8 4 -15.3 60 60 NW 12 19 30.36 1028 10 16 N/A
2:55 pm 14:55 Sunny 17 -8.6 5 -15.2 59 59 NNW 12 19 30.36 1028 10 16 N/A
3:15 pm 15:15 Sunny 17 -8.4 5 -15.1 59 59 N 13 20 30.36 1028 10 16 N/A
3:35 pm 15:35 Sunny 17 -8.2 5 -15.1 58 58 N 9 15 30.39 1029 10 16 N/A
3:55 pm 15:55 Sunny 17 -8.5 4 -15.4 58 58 NW 9 15 30.39 1029 10 16 N/A
4:15 pm 16:15 Sunny 17 -8.5 4 -15.5 57 57 NW 8 13 30.39 1029 10 16 N/A
4:35 pm 16:35 Sunny 17 -8.5 4 -15.6 57 57 N 9 15 30.42 1030 10 16 N/A
4:55 pm 16:55 Sunny 17 -8.5 4 -15.4 58 58 NNW 10 17 30.42 1030 10 16 N/A
5:15 pm 17:15 Sunny 17 -8.6 4 -15.6 57 57 N 9 15 30.42 1030 10 16 N/A
5:35 pm 17:35 Sunny 16 -8.8 4 -15.5 59 59 NNW 10 17 30.48 1032 10 16 N/A
5:55 pm 17:55 Sunny 16 -9.1 4 -15.3 61 61 NNW 9 15 30.48 1032 10 16 N/A
6:15 pm 18:15 Sunny 15 -9.5 4 -15.4 63 63 N 9 15 30.48 1032 10 16 N/A
6:35 pm 18:35 Clear 14 -10.2 3 -15.9 63 63 N 10 17 30.48 1032 10 16 N/A
6:55 pm 18:55 Clear 13 -10.6 3 -16 65 65 N 12 19 30.50 1033 10 16 N/A
7:15 pm 19:15 Clear 12 -11 3 -16.3 65 65 N 9 15 30.50 1033 10 16 N/A
7:35 pm 19:35 Clear 11 -11.4 3 -16 69 69 N 8 13 30.53 1034 10 16 N/A
7:55 pm 19:55 Clear 11 -11.7 3 -16.1 70 70 N 6 9 30.53 1034 10 16 N/A
8:15 pm 20:15 Clear 10 -12.1 3 -16.1 72 72 N 6 9 30.56 1035 10 16 N/A
8:35 pm 20:35 Clear 10 -12.2 2 -16.4 71 71 NNW 7 11 30.56 1035 10 16 N/A
8:55 pm 20:55 Clear 10 -12.5 2 -16.5 72 72 N 6 9 30.56 1035 10 16 N/A
9:15 pm 21:15 Clear 9 -12.7 2 -16.6 73 73 N 6 9 30.56 1035 10 16 N/A
9:35 pm 21:35 Clear 9 -13 2 -16.8 73 73 NNW 3 6 30.59 1036 10 16 N/A
9:55 pm 21:55 Clear 8 -13.2 2 -16.7 75 75 NW 3 6 30.62 1037 10 16 N/A
10:15 pm 22:15 Clear 8 -13.5 2 -16.9 76 76 NNW 3 6 30.65 1038 10 16 N/A
10:35 pm 22:35 Clear 8 -13.5 1 -17 75 75 NW 6 9 30.65 1038 10 16 N/A
10:55 pm 22:55 Clear 8 -13.5 2 -16.9 76 76 WNW 6 9 30.65 1038 10 16 N/A
11:15 pm 23:15 Clear 8 -13.6 1 -17.1 75 75 NW 6 9 30.65 1038 10 16 N/A
11:35 pm 23:35 Clear 8 -13.6 1 -17 76 76 WNW 9 15 30.65 1038 10 16 N/A
11:55 pm 23:55 Clear 7 -14.1 1 -17.5 76 76 WNW 10 17 30.65 1038 10 16 N/A

Powered by AerisWeather